COSMOS 2251 DEB

Satellite information

Favourite Embed

Satellite Type and Status

DEBRISIN ORBIT

Key statistics

Satellite COSMOS 2251 DEB at a glance.

Uptime

11869

Days in orbit

Revolutions

≈ 14.3

Per day

Orbit

LEO

Low Earth Orbit

Inclination

74.1

Latest

Satellite identification and parameters

Extended collection of information and parameters for COSMOS 2251 DEB.

Object identification

Identified? True

Debris? True

Object name: COSMOS 2251 DEB

International designator: 1993-036RY

Object number (NORAD): 34431

Object ID (CCSDS): 34431

Country: COMMONWEALTH OF INDEPENDENT STATES (CIS)

Current information (Y/N): Y

RCS size: SMALL

Orbital parameters

Period: 100.786 minutes

Inclination: 74.0747 deg

SMA: 7173.984 km

Apoapsis: 844.844 km

Periapsis: 746.855 km

RAAN: 176.6516 deg

Eccentricy: 0.0068295

Argument of periapsis: 162.5707 deg

Mean anomaly: 197.781 deg

Mean motion: 14.28769375 rev/day

Mean motion (dot): 0.00002479 rev/day2

B* drag term: 0.00096958 1/REarth

Two-line elements (TLE)

Creation date: Dec. 12, 2025, 7:06 a.m.

Reference frame: TEME

Reference center: EARTH

Epoch: Dec. 11, 2025, 10:30 p.m. UTC

TLE line 0: 0 COSMOS 2251 DEB

TLE line 1: 1 34431U 93036RY 25345.93764162 .00002479 00000-0 96958-3 0 9995

TLE line 2: 2 34431 74.0747 176.6516 0068295 162.5707 197.7810 14.28769375871311

Live tracking on map

Real-time ground track for satellite COSMOS 2251 DEB.

In-orbit conjunctions

A list of the most updated potential collisions computed for object COSMOS 2251 DEB.

Target Orbit TCA Probability of collision Miss distance Type
CZ-6A DEB SSO 2024-11-12 09:36:08 0.0008119296 309.0 (m) DEBRIS

Associated space launch

Military communications satellite. Destroyed in a collision with Iridium 33.

COSMOS 2251 DEB was lifted into orbit during the mission ‘Kosmos-3M | Strela-2M 51’, on board a Kosmos-3M space rocket.

The launch took place on June 16, 1993, 4:17 a.m. from 132/1 (132L).

For more information about the launch, click the button.

Launch to space Kosmos-3M | Strela-2M 51
Kosmos-3M | Strela-2M 51

Agency: N/A

Status: Launch Successful

Launch date: June 16, 1993, 4:17 a.m. UTC

Rocket: Kosmos-3M

Launch pad: 132/1 (132L)

Location: Plesetsk Cosmodrome, Russian Federation

...

Latest news about this satellite

There are no fresh news available about this satellite. Check back as we update our databases every day.


Newsletter sign-up

Weekly statistics, charts and insights to help you stay on top of the space industry.